Weather History for St. Augustine, FL

Change the Weather History Date:

Saturday, January 19, 2008

  Actual Average Record
Temperature  
Mean Temperature 54 °F -  
Max Temperature 60 °F 62 °F 82 °F (2001)
Min Temperature 48 °F 44 °F 21 °F (1977)
Degree Days  
Heating Degree Days 11    
Growing Degree Days 4 (Base 50)    
Moisture  
Dew Point 51 °F    
Average Humidity 91    
Maximum Humidity 94    
Minimum Humidity 82    
Precipitation  
Precipitation 0.22 in - - ()
Sea Level Pressure  
Sea Level Pressure 30.01 in    
Wind  
Wind Speed 7 mph (North)    
Max Wind Speed 24 mph    
Max Gust Speed 34 mph    
Visibility 5 miles    
Events Rain , Thunderstorm    
Averages and records for this station are not official NWS values.
T = Trace of Precipitation, MM = Missing Value Source: NWS Daily Summary

Daily Weather History Graph

Daily Weather History Graph

Search for Another Location

Airport:

Trip Planner

Search our weather history database for the weather conditions in past years. The results will help you decide how hot, cold, wet, or windy it might be!

Date:

Astronomy

Jan. 19, 2008 Rise Set
Actual Time 7:21 AM EST 5:50 PM EST
Civil Twilight 6:55 AM EST 6:16 PM EST
Nautical Twilight 6:26 AM EST 6:45 PM EST
Astronomical Twilight 5:57 AM EST 7:14 PM EST
Moon 2:47 PM EST (1/19) 4:41 AM EST (1/19)
Length of Visible Light 11h 21m
Length of Day
10h 29m
Waxing Gibbous, 89% of the Moon is Illuminated
Jan 19
Waxing Gibbous
Jan 22
Full
Jan 30
Last Quarter
Feb 6
New
Feb 13
First Quarter

Hourly Weather History & Observations

Time (EST) Temp. Dew Point Humidity Pressure Visibility Wind Dir Wind Speed Gust Speed Precip Events Conditions
12:15 AM 55.4 °F 51.8 °F 88% 30.09 in 10.0 mi North 4.6 mph - N/A   Overcast
12:35 AM 55.4 °F 51.8 °F 88% 30.09 in 10.0 mi NNW 3.5 mph - N/A   Overcast
12:55 AM 53.6 °F 51.8 °F 94% 30.09 in 8.0 mi WNW 4.6 mph - N/A   Overcast
1:15 AM 53.6 °F 51.8 °F 94% 30.08 in 7.0 mi NNW 8.1 mph - N/A   Overcast
1:35 AM 53.6 °F 51.8 °F 94% 30.09 in 3.0 mi NNW 9.2 mph - N/A   Overcast
1:55 AM 53.6 °F 51.8 °F 94% 30.08 in 2.0 mi NNW 5.8 mph - N/A   Overcast
2:15 AM 53.6 °F 51.8 °F 94% 30.07 in 1.8 mi NNW 4.6 mph - N/A   Overcast
2:35 AM 53.6 °F 51.8 °F 94% 30.06 in 2.5 mi NNW 6.9 mph - N/A   Overcast
2:55 AM 53.6 °F 51.8 °F 94% 30.04 in 3.0 mi North 5.8 mph - N/A   Overcast
3:15 AM 53.6 °F 51.8 °F 94% 30.03 in 5.0 mi North 6.9 mph - N/A   Overcast
3:35 AM 53.6 °F 51.8 °F 94% 30.03 in 5.0 mi North 4.6 mph - N/A   Overcast
3:55 AM 53.6 °F 51.8 °F 94% 30.03 in 5.0 mi North - - N/A   Overcast
4:15 AM 53.6 °F 51.8 °F 94% 30.02 in 5.0 mi North - - 0.02 in   Overcast
4:35 AM 53.6 °F 51.8 °F 94% 30.01 in 7.0 mi NNE 5.8 mph - 0.02 in   Overcast
4:55 AM 53.6 °F 51.8 °F 94% 30.01 in 7.0 mi North - - 0.02 in   Overcast
5:15 AM 53.6 °F 51.8 °F 94% 30.01 in 6.0 mi NNW 4.6 mph - N/A   Overcast
5:35 AM 53.6 °F 51.8 °F 94% 30.02 in 2.5 mi NNW 6.9 mph - N/A   Overcast
5:55 AM 53.6 °F 51.8 °F 94% 30.03 in 2.5 mi NW 8.1 mph - 0.01 in   Overcast
6:15 AM 53.6 °F 51.8 °F 94% 30.05 in 3.0 mi NW 4.6 mph - 0.12 in   Overcast
6:35 AM 53.6 °F 51.8 °F 94% 30.06 in 5.0 mi NNW 5.8 mph - 0.17 in   Mostly Cloudy
6:50 AM 53.6 °F 51.8 °F 94% 30.07 in 5.0 mi North 6.9 mph - N/A Rain Light Rain
7:15 AM 51.8 °F 50.0 °F 94% 30.07 in 1.0 mi North 6.9 mph - N/A Rain Rain
7:50 AM 51.8 °F 48.2 °F 88% 30.09 in 1.0 mi NNW 8.1 mph - N/A Rain Rain
8:50 AM 51.8 °F 50.0 °F 94% 30.08 in 2.0 mi North 8.1 mph - N/A Rain Rain
9:50 AM 53.6 °F 50.0 °F 88% 30.06 in 2.0 mi NNE 8.1 mph - N/A Rain Light Rain
10:20 AM 53.6 °F 48.2 °F 82% 30.00 in 3.0 mi ENE 11.5 mph - N/A   Overcast
10:55 AM 55.4 °F 50.0 °F 82% 29.99 in 3.0 mi ENE 11.5 mph - N/A   Overcast
11:50 AM 55.4 °F 51.8 °F 88% 29.99 in 3.0 mi NE 11.5 mph - N/A   Overcast
12:50 PM 57.2 °F 53.6 °F 88% 29.95 in 3.0 mi East 8.1 mph - N/A   Overcast
2:34 PM 60.8 °F 55.4 °F 82% 29.88 in 5.0 mi South 4.6 mph - N/A   Overcast
2:50 PM 60.8 °F 55.4 °F 82% 29.87 in 5.0 mi Calm Calm - N/A   Overcast
3:50 PM 60.8 °F 57.2 °F 88% 29.87 in 5.0 mi Calm Calm - N/A   Overcast
4:47 PM 60.8 °F 55.4 °F 82% 29.89 in 5.0 mi NNW 16.1 mph 19.6 mph N/A   Overcast
4:58 PM 59.0 °F 55.4 °F 88% 29.90 in 2.0 mi NNW 13.8 mph 19.6 mph N/A Rain Rain
5:40 PM 51.8 °F 48.2 °F 88% 30.01 in 0.2 mi NW 24.2 mph 34.5 mph N/A Rain , Thunderstorm Thunderstorms and Rain
5:50 PM 51.8 °F 48.2 °F 88% 29.89 in 5.0 mi North 18.4 mph 29.9 mph N/A Rain , Thunderstorm Thunderstorms and Rain
6:50 PM 51.8 °F 50.0 °F 94% 29.90 in 9.0 mi NNE 9.2 mph - N/A   Mostly Cloudy
7:50 PM 53.6 °F 51.8 °F 94% 29.84 in 10.0 mi ENE 5.8 mph - N/A   Mostly Cloudy
8:55 PM 51.8 °F 48.2 °F 88% 29.92 in 10.0 mi NNW 15.0 mph 25.3 mph N/A   Overcast
9:15 PM 51.8 °F 48.2 °F 88% 29.94 in 4.0 mi NNW 16.1 mph 23.0 mph N/A   Overcast
9:35 PM 51.8 °F 48.2 °F 88% 29.97 in 3.0 mi NNW 9.2 mph - N/A   Overcast
9:55 PM 50.0 °F 46.4 °F 87% 29.98 in 5.0 mi NNW 10.4 mph - N/A   Overcast
10:15 PM 50.0 °F 46.4 °F 87% 29.99 in 10.0 mi NNW 12.7 mph - N/A   Overcast
10:35 PM 50.0 °F 46.4 °F 87% 30.00 in 8.0 mi NNW 15.0 mph - 0.01 in   Overcast
10:55 PM 48.2 °F 46.4 °F 93% 30.02 in 3.0 mi NNW 12.7 mph - 0.01 in   Overcast
11:15 PM 48.2 °F 46.4 °F 93% 30.04 in 8.0 mi North 10.4 mph - N/A   Overcast
11:35 PM 48.2 °F 46.4 °F 93% 30.04 in 6.0 mi NNW 13.8 mph 20.7 mph N/A   Overcast
11:55 PM 48.2 °F 46.4 °F 93% 30.05 in 5.0 mi NNW 13.8 mph 18.4 mph 0.01 in   Overcast